Herbiester - Hors Challenge

L'herbiestrail à Herbiester 17.00 km)

samedi 16 septembre 2017
Le classement original se trouve sur : http://www.nv-sports.be/
 
L'HERBIESTRAIL - HERBIESTER
DISTANCE : 17.00 km
samedi 16 septembre 2017
 
Place dos NOM Catégorie Pl/cat temps temps/km Vitesse
1 3 COMPERE MICHAEL SEH 1 0:57:48 03:24 17.65
2 384 REMACLE JEROME SEH 2 1:02:47 03:42 16.25
3 328 MAHAUX OLIVIER V1H 1 1:06:52 03:56 15.25
4 338 ORDONEZ MANU SEH 3 1:06:52 03:56 15.25
5 1837 LOFFET LUDIVINE SEF 1 1:07:01 03:57 15.22
6 146 WIERTZ XAVIER SEH 4 1:07:17 03:57 15.16
7 2 ENGELSKIRCHEN VINCENT SEH 5 1:09:02 04:04 14.78
8 295 LOBGEOIS JULES ESPH 1 1:10:05 04:07 14.55
9 153 PEUTAT SEBASTIEN SEH 6 1:10:23 04:08 14.49
10 400 BODEUX JEAN-MICHEL SEH 7 1:10:27 04:09 14.48
11 388 DEFECHEREUX PASCAL SEH 8 1:11:37 04:13 14.24
12 48 BRASSEUR GREGORY SEH 9 1:12:12 04:15 14.13
13 344 REMACLE MAXIME SEH 10 1:12:20 04:15 14.10
14 345 KEUTGENS MARIO V1H 2 1:12:20 04:15 14.10
15 353 HERBET HENRY V2H 1 1:12:36 04:16 14.05
16 381 DE FROIDMONT GUILLAUME CAH 1 1:13:28 04:19 13.88
17 38 VAN DYCK DIMITRI SEH 11 1:14:04 04:21 13.77
18 199 DECOSTER MAARTEN SEH 12 1:14:08 04:22 13.76
19 180 MOREAU BENARD V1H 3 1:14:31 04:23 13.69
20 145 HECK MARC V1H 4 1:14:38 04:23 13.67
21 385 DEHOTTAY NICOLAS SEH 13 1:16:38 04:30 13.31
22 159 GILSON RENAUD V2H 2 1:18:50 04:38 12.94
23 332 LOWIES JEROME SEH 14 1:18:51 04:38 12.94
24 266 DELHAUSSE KEVIN SEH 15 1:18:52 04:38 12.93
25 8 LEJEUNE PHILIPPE V2H 3 1:19:13 04:40 12.88
26 158 MEJUS FREDERIC SEH 16 1:19:28 04:40 12.84
27 281 GREGOIRE JEAN-PHILIPPE V1H 5 1:19:47 04:42 12.78
28 286 HURARD ADRIEN CAH 2 1:19:55 04:42 12.76
29 178 NOEL PHILIPPE V1H 6 1:20:04 04:43 12.74
30 271 DERU JEROME SEH 17 1:20:07 04:43 12.73
31 45 DIEDDEREN THIERRY SEH 18 1:20:20 04:44 12.70
32 238 JOSKIN DAMIEN SEH 19 1:20:28 04:44 12.68
33 237 FRANCOIS DAVID V1H 7 1:20:29 04:44 12.67
34 244 PAWELKOWSKI DAVID V1H 8 1:20:31 04:44 12.67
35 346 WENDERS STEPHANE SEH 20 1:20:34 04:44 12.66
36 22 BOUCHEZ CEDRIC SEH 21 1:20:37 04:45 12.65
37 298 MILON MICHAEL SEH 22 1:20:54 04:46 12.61
38 173 MAGIS JEAN-BENOIT V1H 9 1:20:57 04:46 12.60
39 218 THOMAS JORDAN SEH 23 1:21:20 04:47 12.54
40 364 REUL BENEDICTE SEF 2 1:21:32 04:48 12.51
41 50 GERKENS WILLIAM V1H 10 1:21:37 04:48 12.50
42 392 MOUREAU JORDAN SEH 24 1:21:42 04:48 12.48
43 314 TIMMERMAN DAVID SEH 25 1:21:53 04:49 12.46
44 279 GERON GILLES SEH 26 1:21:53 04:49 12.46
45 337 BALTUS DANIEL SEH 27 1:22:02 04:50 12.43
46 370 DETHIER MATHIEU SEH 28 1:22:06 04:50 12.42
47 393 MARIQUE JEAN-CHRISTOPHE V1H 11 1:22:07 04:50 12.42
48 301 PAROTTE CHRISTOPHE V1H 12 1:22:27 04:51 12.37
49 389 DIEPART XAVIER SEH 29 1:22:27 04:51 12.37
50 198 DE COSTER IRIS V1F 1 1:23:18 04:54 12.24
51 36 HENNEN THIBAUT SEH 30 1:25:29 05:02 11.93
52 209 SPAILIER FABIEN V1H 13 1:25:35 05:02 11.92
53 165 WUIDART VINCENT SEH 31 1:25:59 05:03 11.86
54 131 GEIEBENNE OLIVIER SEH 32 1:26:02 05:04 11.86
55 168 DUYCKAERTS GEOFFREY SEH 33 1:26:09 05:04 11.84
56 167 PIRARD VINCENT SEH 34 1:26:09 05:04 11.84
57 43 BRIAMONT NICOLAS SEH 35 1:26:23 05:05 11.81
58 317 VAN LAAR MICHEL V2H 4 1:26:40 05:06 11.77
59 187 LIEGEOIS MARC V2H 5 1:26:49 05:06 11.75
60 378 ANGELOV BORIS SEH 36 1:26:59 05:07 11.73
61 256 BONNEU TIMMIE SEH 37 1:27:41 05:09 11.63
62 239 NORO FRANCOIS-XAVIER SEH 38 1:27:48 05:10 11.62
63 276 FILOT CHARLES CAH 3 1:27:49 05:10 11.62
64 327 EL-BALOI DRISS CAH 4 1:28:01 05:11 11.59
65 241 FRANSOLET YVES V2H 6 1:28:03 05:11 11.58
66 321 WIERTZ VINCENT SEH 39 1:28:08 05:11 11.57
67 215 PAPART JULIEN SEH 40 1:28:15 05:11 11.56
68 139 GUIDOLIN ROBIN SEH 41 1:28:17 05:12 11.55
69 363 WINANDY GUY V3H 1 1:28:22 05:12 11.54
70 382 GOBATTO GIOVANNI V1H 14 1:28:49 05:13 11.48
71 7 ROBINET DANY SEH 42 1:28:57 05:14 11.47
72 398 REYDENER JOSEPH SEH 43 1:29:16 05:15 11.43
73 340 CANALES ALBERTO V3H 2 1:29:29 05:16 11.40
74 182 MARCHOT CHRISTIAN V2H 7 1:29:42 05:17 11.37
75 40 HANSSEN REGIS SEH 44 1:29:55 05:17 11.34
76 243 SCHENE KEVIN SEH 45 1:29:58 05:18 11.34
77 1740 STEFFENS BENOIT V1H 15 1:30:14 05:18 11.30
78 341 PAULY DANIEL V1H 16 1:30:18 05:19 11.30
79 371 LOLY FRANCOISE SEF 3 1:30:30 05:19 11.27
80 372 VAESEN PHILIPPE SEH 46 1:30:30 05:19 11.27
81 152 ERNST ERIC V1H 17 1:30:43 05:20 11.24
82 132 RENSONNET PASCAL SEH 47 1:31:09 05:22 11.19
83 282 HARDY MARC V1H 18 1:31:11 05:22 11.19
84 184 LESCART JEAN-CHRISTOPHE V1H 19 1:31:23 05:23 11.16
85 255 BLEYFUESZ STÉPHAN V1H 20 1:31:24 05:23 11.16
86 377 GOUVERNEUR AURELIE SEF 4 1:31:30 05:23 11.15
87 35 DEWANDELEEN BENJAMIN SEH 48 1:31:35 05:23 11.14
88 399 VAN BRACKEL JEAN MARC V2H 8 1:31:55 05:24 11.10
89 396 DETAILLE DAVID SEH 49 1:32:00 05:25 11.09
90 13 KOSCHNICKE YVES SEH 50 1:32:03 05:25 11.08
91 254 BAYARD STEVE SEH 51 1:32:04 05:25 11.08
92 397 FRANCISE PATRICK V1H 21 1:32:10 05:25 11.07
93 219 TODDE VINCENT SEH 52 1:32:11 05:25 11.06
94 333 BECKS CHRISTOPHE SEH 53 1:32:21 05:26 11.04
95 322 WILLEM FLORENCE SEF 5 1:32:22 05:26 11.04
96 352 FASSIN JEROME V1H 22 1:32:47 05:27 10.99
97 236 PIRONT CHRISTIAN SEH 54 1:33:04 05:28 10.96
98 136 VANDENBULCK BERTRAND SEH 55 1:33:06 05:29 10.96
99 216 BARBE THOMAS SEH 56 1:33:12 05:29 10.94
100 33 FASSIN J-F SEH 57 1:33:56 05:32 10.86
101 387 HAUZOUL JEAN CAH 5 1:34:06 05:32 10.84
102 151 STICH VINCENT V1H 23 1:34:07 05:32 10.84
103 351 MALOTAUX DAVID V1H 24 1:34:16 05:33 10.82
104 220 FOSSOUL RAPHAEL SEH 58 1:34:40 05:34 10.77
105 342 DAMBLON PATRICK V2H 9 1:34:40 05:34 10.77
106 270 DEPRESSEUX NICOLAS SEH 59 1:34:47 05:35 10.76
107 356 ENGLEBERT ANDRE SEH 60 1:34:57 05:35 10.74
108 169 WINTGENS FRED SEF 6 1:35:07 05:36 10.72
109 357 CREPIN CHARLES V1H 25 1:35:18 05:36 10.70
110 291 LEJEUNE BÉNÉDICTE SEF 7 1:35:22 05:37 10.70
111 368 GAUTHY JEAN-MICHEL V2H 10 1:35:22 05:37 10.70
112 10 DEFECHEREUX JEAN-LUC V3H 3 1:35:29 05:37 10.68
113 142 HAUGLUSTAINE JEROME SEH 61 1:35:50 05:38 10.64
114 44 COLSON DAVID SEH 62 1:36:16 05:40 10.60
115 217 WUIDART CHRISTEL V1F 2 1:36:26 05:40 10.58
116 189 STINI SIRHAN V1H 26 1:36:38 05:41 10.56
117 283 HEINRICHS GREGORY SEH 63 1:36:41 05:41 10.55
118 358 AHN VALERIE SEF 8 1:37:07 05:43 10.50
119 359 LESPIRE STEVE SEH 64 1:37:08 05:43 10.50
120 273 DEWULF NOELLZE V1H 27 1:37:11 05:43 10.50
121 179 MELISEN CHRISTELLE V1F 3 1:37:11 05:43 10.50
122 386 HORWARD BENEDICTE V1F 4 1:37:11 05:43 10.50
123 1734 REUCHAMPS RÉGINE V1F 5 1:37:11 05:43 10.50
124 234 DECHAMPS VALERIE V1F 6 1:37:16 05:43 10.49
125 225 HENON FLORENCE V1F 7 1:37:16 05:43 10.49
126 235 REMACLE DELPHINE V1F 8 1:37:16 05:43 10.49
127 11 DELVAUX JEAN-MARC XXX   1:37:26 05:44 10.47
128 46 RADERMECHER THIBAUD SEH 65 1:37:26 05:44 10.47
129 212 SCHMITZ AMANDINE SEF 9 1:37:26 05:44 10.47
130 366 CICCARELLA TONY V1H 28 1:37:34 05:44 10.45
131 138 LEFEBVRE THOMAS SEH 66 1:37:42 05:45 10.44
132 354 ROGISTER CHRISTIANE V2F 1 1:37:53 05:45 10.42
133 268 DEMOL CINDY SEH 67 1:37:57 05:46 10.41
134 193 LEROY MANON SEF 10 1:38:02 05:46 10.40
135 277 FLORKIN PIERRE V2H 11 1:38:07 05:46 10.40
136 29 GREIMERS DIMITRI SEH 68 1:38:09 05:46 10.39
137 290 LE TRUNG BAO V1H 29 1:38:16 05:47 10.38
138 394 OP T EYNDE HANS SEH 69 1:38:17 05:47 10.38
139 181 FILEE FABIAN SEH 70 1:38:22 05:47 10.37
140 34 LEX FREDERIC SEH 71 1:38:26 05:47 10.36
141 39 VANDERHAUWART THIBAULT SEH 72 1:38:26 05:47 10.36
142 390 LORQUET MARC V1H 30 1:38:33 05:48 10.35
143 162 COUNET CHRISTELLE SEF 11 1:39:03 05:50 10.30
144 163 MARIEN FRANCOIS SEH 73 1:39:03 05:50 10.30
145 249 GRZESINSKI BERNARD V2H 12 1:39:16 05:50 10.28
146 191 URLINGS LAURENT SEH 74 1:39:22 05:51 10.27
147 175 THISSEN MICHEL V2H 13 1:39:24 05:51 10.26
148 31 SEVRIN FREDERIC SEH 75 1:39:37 05:52 10.24
149 32 DEVIGNE JEAN-MICHEL SEH 76 1:39:37 05:52 10.24
150 308 SCHUMANN DIETER V1H 31 1:39:39 05:52 10.24
151 320 VOGELEER MICHEL V1H 32 1:39:51 05:52 10.22
152 329 SAMMI SEBASTIEN V1H 33 1:40:01 05:53 10.20
153 245 SARLET CAROL SEF 12 1:40:19 05:54 10.17
154 51 DALLACORTE LUDOVIC SEH 77 1:40:35 05:55 10.14
155 1737 SCHNAKERS STÉPHANE XXX   1:40:40 05:55 10.13
156 258 BRUTINEL MURIEL SEF 13 1:40:42 05:55 10.13
157 395 VUYLSTEKE VERONIQUE V1F 9 1:40:51 05:56 10.11
158 52 HENSGENS JAN V3H 4 1:41:00 05:56 10.10
159 37 LEFIN PASALE SEF 14 1:41:21 05:58 10.06
160 350 DELEDICQUE JEAN-LUC V1H 34 1:42:14 06:01 9.98
161 296 MARTENS KEV SEH 78 1:42:41 06:02 9.93
162 130 PIQUERAY FLORIAN SEH 79 1:42:56 06:03 9.91
163 129 MARTIN MOUT CAH 6 1:42:56 06:03 9.91
164 284 HENRARD NICOLAS SEH 80 1:43:32 06:05 9.85
165 183 DUCHENE ISABELLE V2F 2 1:44:14 06:08 9.79
166 261 CLOSSET BENOIT SEH 81 1:44:17 06:08 9.78
167 330 ELZBIETA KOZAKIEWICZ SEF 15 1:44:32 06:09 9.76
168 306 RUTH CINDY SEH 82 1:44:36 06:09 9.75
169 148 COLLARD PASCAL V1H 35 1:45:00 06:11 9.71
170 164 FRANCK SHIRLEY SEF 16 1:45:36 06:13 9.66
171 285 HURARD JOEL V2H 14 1:45:49 06:13 9.64
172 339 DELREZ SANDRA V1F 10 1:45:53 06:14 9.63
173 302 PIRENNE ANNICK SEF 17 1:45:57 06:14 9.63
174 170 THISSEN FRED SEF 18 1:46:00 06:14 9.62
175 305 RION CAROLINE SEF 19 1:46:08 06:15 9.61
176 259 CALLENS SYLVAIN SEH 83 1:46:25 06:16 9.58
177 289 LAROSE DANIEL V2H 15 1:46:27 06:16 9.58
178 361 WEILER DIDIER V1H 36 1:46:27 06:16 9.58
179 260 CLOSE GAEL SEH 84 1:46:29 06:16 9.58
180 307 SADZOT AGNÈS XXX   1:46:44 06:17 9.56
181 362 HUBERMONT FABIEN V1H 37 1:46:44 06:17 9.56
182 128 RENAVILLE JEAN-MARC V1H 38 1:46:52 06:17 9.54
183 127 BERTRAND MANU SEH 85 1:47:18 06:19 9.51
184 171 MARICHAL DELPHINE SEF 20 1:47:18 06:19 9.51
185 303 PLOUMEN LOIC XXX   1:48:07 06:22 9.43
186 28 POLIS LUCIENNE V2F 3 1:48:09 06:22 9.43
187 1729 MOREAU PATRICE V1H 39 1:48:20 06:22 9.42
188 203 SURSON THEO V2H 16 1:48:22 06:22 9.41
189 188 REUTER JEAN-LUC V2H 17 1:48:40 06:24 9.39
190 206 GILLET FREDERIQUE V1F 11 1:48:44 06:24 9.38
191 207 JEROME OLIVIER SEH 86 1:48:44 06:24 9.38
192 202 WARLONO CINDY SEF 21 1:48:46 06:24 9.38
193 226 DOUBELS MYRIAM V1F 12 1:48:53 06:24 9.37
194 309 SERVAIS BENJAMIN SEH 87 1:48:53 06:24 9.37
195 274 DIRICKS MICHAEL V1H 40 1:49:07 06:25 9.35
196 297 MASSART GÉRALDINE SEF 22 1:49:17 06:26 9.33
197 379 BOULANGER AXEL SEH 88 1:49:23 06:26 9.33
198 299 MOREAU CHRISTINE SEH 89 1:49:27 06:26 9.32
199 141 ASSENT AMANDINE SEF 23 1:49:39 06:27 9.30
200 335 VAN CALSTER ISABELLE V1F 13 1:50:08 06:29 9.26
201 205 JACQUES LIONEL SEH 90 1:50:20 06:29 9.24
202 278 FRANCART DAVID SEH 91 1:50:23 06:30 9.24
203 154 DELMELLE SOPHIE SEF 24 1:50:29 06:30 9.23
204 380 THIRION ALAIN V2H 18 1:50:40 06:31 9.22
205 185 BADEMBERE BERNARD V1H 41 1:50:41 06:31 9.22
206 253 AZAOUAJ KARIM SEH 92 1:50:43 06:31 9.21
207 264 DARIMONT VALERIE V1H 42 1:50:49 06:31 9.20
208 149 BLANCHY SERGE V2H 19 1:52:16 06:36 9.09
209 150 FRANCE MICHEL V1H 43 1:52:16 06:36 9.09
210 172 LAMOUR VIRGINIE SEF 25 1:52:23 06:37 9.08
211 360 TOUSSAINT DOMINIQUE V1F 14 1:52:50 06:38 9.04
212 211 BRASSEUR AURORE SEF 26 1:53:00 06:39 9.03
213 275 DUSPEAUX FABIENNE V2F 4 1:53:09 06:39 9.01
214 326 GAUDRON THIERRY V2H 20 1:53:09 06:39 9.01
215 269 DEMONCEAU JOSE V2H 21 1:53:21 06:40 9.00
216 288 KAIRIS CÉCILE V1F 15 1:53:22 06:40 9.00
217 336 ABAD LAMAS PATRICIA V2F 5 1:53:37 06:41 8.98
218 319 VANWYNSBERGHE ALINE SEF 27 1:53:38 06:41 8.98
219 201 SOMMER ANJA V2F 6 1:53:45 06:41 8.97
220 26 GEELEN BEATRICE V1F 16 1:53:49 06:42 8.96
221 27 KNUTS SYLVIE V1F 17 1:53:49 06:42 8.96
222 186 DELWAIDE-LIEGEOIS ANNE V2F 7 1:54:00 06:42 8.95
223 228 DELCOMMINETTE CINDY SEF 28 1:54:00 06:42 8.95
224 229 LEGROS MURIEL V1F 18 1:54:00 06:42 8.95
225 369 LEJEUNE DAVID V1H 44 1:54:00 06:42 8.95
226 230 LEGROS GHISLAIN V1H 45 1:54:01 06:42 8.95
227 144 HAGEMANN FLORENCE V1F 19 1:54:04 06:43 8.94
228 300 NOKIN MARIANNE XXX   1:54:04 06:43 8.94
229 334 WILLEMS JOSIANE V2F 8 1:54:10 06:43 8.93
230 166 LENZEN MANON SEF 29 1:54:11 06:43 8.93
231 365 REUL JACQUES V3H 5 1:54:15 06:43 8.93
232 343 ZINANT CHRISTOPHE SEH 93 1:54:16 06:43 8.93
233 143 FAUTRE TIFFANY SEF 30 1:54:16 06:43 8.93
234 246 SOMJA LAURE SEF 31 1:54:24 06:44 8.92
235 347 PINAZO LUCAS V2H 22 1:54:30 06:44 8.91
236 195 FRISEE CHARLOTTE SEF 32 1:54:33 06:44 8.90
237 194 BOSCO VALERIE V1F 20 1:54:34 06:44 8.90
238 192 FRISEE MARIETTE V2F 9 1:54:34 06:44 8.90
239 47 DOUDRY JEAN-PIERRE V3H 6 1:54:36 06:44 8.90
240 248 DEWALQUE THIERRY V1H 46 1:55:02 06:46 8.87
241 147 BOULANGER ANNE-SOPHIE SEF 33 1:55:03 06:46 8.87
242 224 PIROTTIN VERONIQUE V1F 21 1:55:03 06:46 8.87
243 49 VANNESTE BENOIT SEH 94 1:55:06 06:46 8.86
244 1447 DA COL ANNE SEF 34 1:55:10 06:46 8.86
245 41 JASON AURELIE SEF 35 1:55:15 06:47 8.85
246 242 LABASSE CHRISTINE V2F 10 1:55:36 06:48 8.82
247 155 BASTIN ISABELLE V1F 22 1:55:37 06:48 8.82
248 160 CHAINEUX MARC V1H 47 1:56:00 06:49 8.79
249 197 MESLEC NICOLE SEF 36 1:56:04 06:50 8.79
250 196 RELI TODEA V1H 48 1:56:04 06:50 8.79
251 391 DARIMONT AMANDINE SEF 37 1:56:17 06:50 8.77
252 176 VANDER HEYDEN CLAIRE V1F 23 1:56:19 06:51 8.77
253 349 DENOEL ALINE V1F 24 1:56:19 06:51 8.77
254 331 CORNELISSEN THIERRY V1H 49 1:56:23 06:51 8.76
255 262 CORNET PIERRE V1H 50 1:56:28 06:51 8.76
256 374 HALLEUX DELPHINE SEF 38 1:56:34 06:51 8.75
257 376 GERON MICHAEL SEH 95 1:56:35 06:51 8.75
258 9 BRIALMONT ARNAUD SEH 96 1:56:43 06:52 8.74
259 233 RUTTEN KELLY ESPF 1 1:57:14 06:54 8.70
260 231 FAFCHAMPS CHRISTINE V1F 25 1:57:14 06:54 8.70
261 223 GOURDANGE XAVIER V1H 51 1:57:15 06:54 8.70
262 232 MEINGUET LAURENT V1H 52 1:57:15 06:54 8.70
263 12 JOSSART PHILIPPE V1H 53 1:57:21 06:54 8.69
264 25 HIERNAUX MARINA V1F 26 1:57:59 06:56 8.65
265 373 LEGRAND ANDRE V2H 23 1:59:53 07:03 8.51
266 265 DE TOFFOL YVES V1H 54 1:59:53 07:03 8.51
267 252 ARTUS CARINE SEF 39 2:00:49 07:06 8.44
268 174 LAUWERS DAVID SEH 97 2:00:49 07:06 8.44
269 367 DELARGE ANNICK SEF 40 2:00:56 07:07 8.43
270 310 SKUPIEWSKI VALÉRIE V1F 27 2:00:57 07:07 8.43
271 348 MEURICE ISABELLE V2F 11 2:00:59 07:07 8.43
272 222 JACOB MARIE SEF 41 2:01:32 07:09 8.39
273 157 DEROANNE AMANDINE SEF 42 2:01:33 07:09 8.39
274 214 ROLAND ANNICK V2F 12 2:01:41 07:09 8.38
275 325 GILLES CECILE XXX   2:01:43 07:10 8.38
276 221 CLOSSET GERALDINE SEF 43 2:01:48 07:10 8.37
277 133 NYSSEN PIERRE V1H 55 2:02:11 07:11 8.35
278 213 PICHOT PATRICIA V2F 13 2:02:11 07:11 8.35
279 24 SCHERPENBERGS PHILIPPE V2H 24 2:02:15 07:11 8.34
280 257 BRODKOM NATHALIE V1F 28 2:02:23 07:12 8.33
281 240 LALLEMAND PASCALE V2F 14 2:02:37 07:13 8.32
282 134 LEJEUNE KATHY V1F 29 2:02:45 07:13 8.31
283 135 GENON MARIE-PIERRE V1F 30 2:02:45 07:13 8.31
284 375 DEMAL GREGORY SEH 98 2:03:02 07:14 8.29
285 23 JACK JACK V2H 25 2:04:39 07:20 8.18
286 324 PEETERS WIM V1H 56 2:04:40 07:20 8.18
287 156 HELLEMANNS EDDY V1H 57 2:05:15 07:22 8.14
288 272 DEVLIEGHER MORGANE SEF 44 2:05:17 07:22 8.14
289 355 DEDOYART MARINETTE V1F 31 2:05:32 07:23 8.13
290 210 PAMAEKERS ISABELLE V2F 15 2:05:33 07:23 8.12
291 247 AUGUSTA SOFIA V1F 32 2:11:42 07:45 7.74
292 42 LEMOINE ALINE SEF 45 2:13:19 07:51 7.65
293 292 LEMPEREUR PATRICE V3H 7 2:16:08 08:00 7.49
294 177 SCHWAIGER YVES V1H 58 2:17:40 08:06 7.41
295 383 LANSCH LAURENCE V1F 33 2:17:40 08:06 7.41
296 323 DECLERCQ ANN V1F 34 2:26:16 08:36 6.97